Hourly Data Report for September 30, 2017

All times are specified in Local Standard Time (LST). Add 1 hour to adjust for Daylight Saving Time where and when it is observed.

WINNIPEG A CS
MANITOBA

49°55'00.000" N
97°14'58.000" W
238.70 m
502S001
71849
XWG

Download Data

Hourly Data (September 2017)
Hourly Data Report for September 30, 2017
Temp Definition
°C
Dew Point Temp Definition
°C
Rel Hum Definition
%
Wind Dir Definition
10's deg

Wind Spd Definition
km/h
Visibility Definition
km
Stn Press Definition
kPa
Hmdx Definition


Wind Chill Definition


Weather Definition


TIME
00:00 8.2 5.0 80 17 18   99.50     LegendNANA
01:00 7.6 4.5 81 17 18   99.46     LegendNANA
02:00 7.8 4.8 81 17 18   99.42     LegendNANA
03:00 7.4 4.8 83 17 20   99.37     LegendNANA
04:00 6.9 4.8 86 17 21   99.34     LegendNANA
05:00 7.2 5.2 87 17 23   99.29     LegendNANA
06:00 7.7 5.5 86 17 26   99.23     LegendNANA
07:00 8.1 5.6 84 17 26   99.18     LegendNANA
08:00 10.1 6.2 76 17 29   99.11     LegendNANA
09:00 13.0 6.8 66 17 31   99.04     LegendNANA
10:00 15.5 7.1 57 17 35   98.96     LegendNANA
11:00 17.9 7.4 50 16 35   98.87     LegendNANA
12:00 20.1 7.4 44 16 33   98.77     LegendNANA
13:00 21.7 8.6 43 16 26   98.64     LegendNANA
14:00 21.5 9.1 45 16 28   98.55     LegendNANA
15:00 21.2 8.9 45 16 33   98.44     LegendNANA
16:00 21.3 8.9 45 15 33   98.35     LegendNANA
17:00 20.8 8.9 46 16 31   98.28     LegendNANA
18:00 20.0 9.6 51 14 24   98.23     LegendNANA
19:00 18.8 10.3 58 16 31   98.25     LegendNANA
20:00 17.5 10.5 63 15 35   98.20     LegendNANA
21:00 16.7 9.9 64 15 31   98.12     LegendNANA
22:00 17.1 10.0 63 16 31   98.07     LegendNANA
23:00 17.2 10.0 63 17 35   98.04     LegendNANA

Notes on Data Quality.

Legend

  • E = Estimated
  • M = Missing
  • NA = Not Available
  • ‡ = Partner data that is not subject to review by the National Climate Archives
Date modified: